STARLINK-31838, 60130

Orbit data source: Space-Track

STARLINK-31838, 60130 is a payload satellite owned by SpaceX/Seattle (US) in LEO that was launched on Mon, 24 Jun 2024 UTC via an FALCON 9 launch vehicle from the Air Force Western Test Range (AFWTR). Payload-class satellites include a variety of spacecraft equipped with specific instruments for various scientific and technological missions. These include communications satellites like Starlink; space stations such as the ISS; scientific satellites like the Hubble; Earth observation satellites from companies like Planet Labs, Umbra, and HawkEye 360; GPS; miniature CubeSats for education and research; and military/defense satellites.

Loading next visibility...
Identifier
60130, 2024-118T
Orbit
LEO
Country
Flag of USUS
Related business
Manufacturer
SpaceX/Seattle
Mission
Operational Commercial Communications
Bus & Motor
STARLINK V2M, Unknown motor
Mass
730 kg wet, ~700 kg dry
Launch date (UTC)
2024-06-24 (2 years ago)
Launch vehicle
FALCON 9
Launch site
Air Force Western Test Range (AFWTR)
Object type
Payload
Rocket body
Debris
Shape & HBR
Box + 2 Pan, 17.7 m
Radar Cross Section
33.884 m², Large (>1 m²)

Expand to show TLE details & history
Last TLE update: 1 day ago

TLE from 1 day ago
0 STARLINK-31838
1 60130U 24118T   26126.27912317  .00001043  00000-0  45351-4 0  9995
2 60130  53.1605 119.2170 0001166  94.4485 265.6650 15.31704627104518
Epoch: 2026-05-06T06:41Z
TLE epoch observation values (Epoch: 2026-05-06T06:41:56.241Z)
Latitude
-0.00001°
Longitude
154.59076°
Altitude
471.687 km
Speed
7.631 km/s
True Right ascension
07h 56m 52s
True Declination
0° 00' 00"
Sunlit
Object was in daylight at epoch
Visualization orbit readout
Latitude
Unknown
Longitude
Unknown
Altitude
Unknown
Speed
Unknown
Apparent Right ascension
Unknown
Apparent Declination
Unknown
Sunlit
N/A
Visualization observer readout
Local Sidereal Time
14:42:48
Azimuth
Unknown
Elevation
Unknown
Doppler factor
Unknown
Orbital elements
Apogee altitude
471.781 km
Perigee altitude
470.184 km
Semi-major axis
6,849.12 km
Eccentricity
0.00012
Inclination
53.1605°
RAAN
119.217°
Arg. of periapsis
94.4485°
True anomaly
265.65168°
Mean anomaly
265.665°
Eccentric anomaly
265.65834°
Mean motion
3.82905 °/min
Orbital period
94.02 mins
BSTAR
0.000045351
Loading maneuver chart data...
Computing Atmospheric mass density...
Loading historical data...
Loading historical data...
Loading historical data...
Loading historical data...
Loading historical data...
Loading historical data...
Loading historical data...

Documentation

Showing up to 5 results
|